• In Hungary
  • List of Countries
  • For 7 days
  • Water Temperature
  • Satellite Maps
  • Weather Map
  • News
  • Weather Widgets
  • user-avatar
    Login

    Hourly Weather Chiclana de la Frontera

    Today, 18 January, Thursday

    Time Temperature Precipitation Wind Pressure Humidity
    00:00 +9°C° 0 mm 5 mps 762 mmHg 72%
    01:00 +9°C° 0 mm 5 mps 762 mmHg 70%
    02:00 +9°C° 0 mm 5 mps 762 mmHg 68%
    03:00 +9°C° 0 mm 5 mps 762 mmHg 66%
    04:00 +9°C° 0 mm 6 mps 762 mmHg 66%
    05:00 +9°C° 0 mm 6 mps 762 mmHg 65%
    06:00 +9°C° 0 mm 6 mps 762 mmHg 65%
    07:00 +10°C° 0 mm 6 mps 762 mmHg 66%
    08:00 +10°C° 0 mm 7 mps 762 mmHg 67%
    09:00 +11°C° 0 mm 7 mps 762 mmHg 68%
    10:00 +14°C° 0 mm 7 mps 762 mmHg 62%
    11:00 +16°C° 0 mm 7 mps 762 mmHg 56%
    12:00 +18°C° 0 mm 7 mps 762 mmHg 51%
    13:00 +19°C° 0 mm 6 mps 762 mmHg 50%
    14:00 +19°C° 0 mm 6 mps 761 mmHg 49%
    15:00 +20°C° 0 mm 5 mps 761 mmHg 47%
    16:00 +17°C° 0 mm 5 mps 761 mmHg 55%
    17:00 +15°C° 0 mm 4 mps 761 mmHg 62%
    18:00 +13°C° 0 mm 4 mps 761 mmHg 69%
    19:00 +13°C° 0 mm 3 mps 761 mmHg 69%
    20:00 +12°C° 0 mm 3 mps 761 mmHg 69%
    21:00 +12°C° 0 mm 3 mps 761 mmHg 69%
    22:00 +12°C° 0 mm 3 mps 761 mmHg 69%
    23:00 +12°C° 0 mm 3 mps 761 mmHg 69%

    Tomorrow, 19 January, Friday

    Time Temperature Precipitation Wind Pressure Humidity
    00:00 +13°C° 0 mm 2 mps 761 mmHg 69%
    01:00 +12°C° 0 mm 2 mps 761 mmHg 69%
    02:00 +12°C° 0 mm 2 mps 761 mmHg 70%
    03:00 +12°C° 0 mm 2 mps 761 mmHg 71%
    04:00 +10°C° 0 mm 2 mps 761 mmHg 72%
    05:00 +11°C° 0 mm 1 mps 761 mmHg 73%
    06:00 +11°C° 0 mm 1 mps 761 mmHg 75%
    07:00 +11°C° 0 mm 1 mps 762 mmHg 74%
    08:00 +12°C° 0 mm 1 mps 762 mmHg 73%
    09:00 +13°C° 0 mm 1 mps 762 mmHg 73%
    10:00 +15°C° 0 mm 1 mps 763 mmHg 68%
    11:00 +16°C° 0 mm 1 mps 763 mmHg 63%
    12:00 +19°C° 0 mm 1 mps 763 mmHg 58%
    13:00 +19°C° 0 mm 1 mps 763 mmHg 58%
    14:00 +19°C° 0 mm 1 mps 763 mmHg 58%
    15:00 +19°C° 0 mm 1 mps 763 mmHg 57%
    16:00 +18°C° 0 mm 1 mps 763 mmHg 64%
    17:00 +15°C° 0 mm 1 mps 764 mmHg 70%
    18:00 +14°C° 0 mm 1 mps 764 mmHg 77%
    19:00 +13°C° 0 mm 2 mps 765 mmHg 78%
    20:00 +13°C° 0 mm 2 mps 765 mmHg 78%
    21:00 +12°C° 0 mm 2 mps 766 mmHg 79%
    22:00 +12°C° 0 mm 2 mps 766 mmHg 78%
    23:00 +12°C° 0 mm 2 mps 766 mmHg 77%

    Day after tomorrow, 20 January, Saturday

    Time Temperature Precipitation Wind Pressure Humidity
    00:00 +10°C° 0 mm 2 mps 767 mmHg 77%
    01:00 +10°C° 0 mm 2 mps 767 mmHg 77%
    02:00 +10°C° 0 mm 2 mps 766 mmHg 77%
    03:00 +9°C° 0 mm 2 mps 766 mmHg 77%
    04:00 +9°C° 0 mm 2 mps 766 mmHg 77%
    05:00 +9°C° 0 mm 2 mps 767 mmHg 76%
    06:00 +9°C° 0 mm 3 mps 767 mmHg 76%
    07:00 +9°C° 0 mm 2 mps 767 mmHg 73%
    08:00 +10°C° 0 mm 2 mps 768 mmHg 70%
    09:00 +12°C° 0 mm 2 mps 768 mmHg 67%
    10:00 +14°C° 0 mm 2 mps 768 mmHg 62%
    11:00 +16°C° 0 mm 2 mps 768 mmHg 56%
    12:00 +18°C° 0 mm 2 mps 768 mmHg 50%
    13:00 +18°C° 0 mm 3 mps 768 mmHg 49%
    14:00 +19°C° 0 mm 3 mps 768 mmHg 47%
    15:00 +19°C° 0 mm 3 mps 767 mmHg 46%
    16:00 +18°C° 0 mm 3 mps 767 mmHg 52%
    17:00 +16°C° 0 mm 3 mps 768 mmHg 58%
    18:00 +13°C° 0 mm 3 mps 768 mmHg 64%
    19:00 +13°C° 0 mm 3 mps 768 mmHg 64%
    20:00 +13°C° 0 mm 2 mps 769 mmHg 63%
    21:00 +13°C° 0 mm 2 mps 769 mmHg 62%
    22:00 +12°C° 0 mm 3 mps 769 mmHg 62%
    23:00 +11°C° 0 mm 3 mps 769 mmHg 61%

    21 January, Sunday

    Time Temperature Precipitation Wind Pressure Humidity
    00:00 +11°C° 0 mm 3 mps 769 mmHg 61%
    01:00 +11°C° 0 mm 3 mps 769 mmHg 62%
    02:00 +10°C° 0 mm 3 mps 769 mmHg 64%
    03:00 +10°C° 0 mm 3 mps 769 mmHg 65%
    04:00 +10°C° 0 mm 3 mps 769 mmHg 66%
    05:00 +10°C° 0 mm 3 mps 769 mmHg 68%
    06:00 +9°C° 0 mm 3 mps 769 mmHg 69%
    07:00 +10°C° 0 mm 3 mps 769 mmHg 69%
    08:00 +11°C° 0 mm 3 mps 769 mmHg 68%
    09:00 +12°C° 0 mm 3 mps 770 mmHg 67%
    10:00 +14°C° 0 mm 3 mps 770 mmHg 62%
    11:00 +17°C° 0 mm 3 mps 770 mmHg 57%
    12:00 +19°C° 0 mm 3 mps 770 mmHg 51%
    13:00 +20°C° 0 mm 2 mps 769 mmHg 51%
    14:00 +21°C° 0 mm 2 mps 769 mmHg 50%
    15:00 +21°C° 0 mm 2 mps 768 mmHg 50%
    16:00 +19°C° 0 mm 2 mps 768 mmHg 58%
    17:00 +18°C° 0 mm 1 mps 768 mmHg 65%
    18:00 +15°C° 0 mm 1 mps 768 mmHg 73%
    19:00 +15°C° 0 mm 1 mps 769 mmHg 73%
    20:00 +15°C° 0 mm 1 mps 769 mmHg 74%
    21:00 +14°C° 0 mm 1 mps 769 mmHg 74%
    22:00 +14°C° 0 mm 2 mps 769 mmHg 74%
    23:00 +14°C° 0 mm 2 mps 769 mmHg 73%

    22 January, Monday

    Time Temperature Precipitation Wind Pressure Humidity
    00:00 +14°C° 0 mm 2 mps 769 mmHg 72%
    01:00 +13°C° 0 mm 2 mps 769 mmHg 72%
    02:00 +13°C° 0 mm 2 mps 768 mmHg 72%
    03:00 +13°C° 0 mm 2 mps 768 mmHg 72%
    04:00 +12°C° 0 mm 3 mps 768 mmHg 72%
    05:00 +11°C° 0 mm 3 mps 768 mmHg 72%
    06:00 +11°C° 0 mm 3 mps 768 mmHg 72%
    07:00 +12°C° 0 mm 3 mps 768 mmHg 70%
    08:00 +13°C° 0 mm 3 mps 769 mmHg 68%
    09:00 +14°C° 0 mm 3 mps 769 mmHg 67%
    10:00 +17°C° 0 mm 3 mps 769 mmHg 61%
    11:00 +19°C° 0 mm 3 mps 769 mmHg 55%
    12:00 +21°C° 0 mm 2 mps 769 mmHg 49%
    13:00 +23°C° 0 mm 2 mps 768 mmHg 48%
    14:00 +23°C° 0 mm 2 mps 768 mmHg 48%
    15:00 +24°C° 0 mm 2 mps 767 mmHg 47%
    16:00 +21°C° 0 mm 2 mps 767 mmHg 54%
    17:00 +19°C° 0 mm 2 mps 767 mmHg 61%
    18:00 +17°C° 0 mm 2 mps 767 mmHg 68%
    19:00 +16°C° 0 mm 2 mps 768 mmHg 69%
    20:00 +15°C° 0 mm 2 mps 768 mmHg 70%
    21:00 +15°C° 0 mm 2 mps 768 mmHg 71%
    22:00 +14°C° 0 mm 2 mps 768 mmHg 71%
    23:00 +14°C° 0 mm 2 mps 768 mmHg 70%

    23 January, Tuesday

    Time Temperature Precipitation Wind Pressure Humidity
    00:00 +13°C° 0 mm 3 mps 768 mmHg 70%
    01:00 +12°C° 0 mm 3 mps 768 mmHg 69%
    02:00 +12°C° 0 mm 3 mps 767 mmHg 68%
    03:00 +12°C° 0 mm 3 mps 767 mmHg 68%
    04:00 +11°C° 0 mm 3 mps 767 mmHg 67%
    05:00 +11°C° 0 mm 3 mps 767 mmHg 66%
    06:00 +11°C° 0 mm 3 mps 767 mmHg 65%
    07:00 +12°C° 0 mm 3 mps 767 mmHg 64%
    08:00 +13°C° 0 mm 3 mps 768 mmHg 64%
    09:00 +13°C° 0 mm 3 mps 768 mmHg 63%
    10:00 +17°C° 0 mm 3 mps 768 mmHg 57%
    11:00 +19°C° 0 mm 3 mps 768 mmHg 50%
    12:00 +21°C° 0 mm 3 mps 767 mmHg 44%
    13:00 +22°C° 0 mm 4 mps 767 mmHg 43%
    14:00 +22°C° 0 mm 4 mps 767 mmHg 43%
    15:00 +23°C° 0 mm 4 mps 766 mmHg 42%
    16:00 +21°C° 0 mm 4 mps 766 mmHg 48%
    17:00 +19°C° 0 mm 4 mps 766 mmHg 53%
    18:00 +15°C° 0 mm 4 mps 766 mmHg 59%
    19:00 +15°C° 0 mm 4 mps 766 mmHg 60%
    20:00 +14°C° 0 mm 4 mps 767 mmHg 61%
    21:00 +13°C° 0 mm 4 mps 767 mmHg 62%
    22:00 +13°C° 0 mm 5 mps 767 mmHg 61%
    23:00 +13°C° 0 mm 5 mps 767 mmHg 61%
    Show more